ECMWFFLT1_925_thetae_108.txt.gz
Theta_e
267 267 267 266 266 266 266 265 265 265 265 264 264 264 263 263 263 263 263 262 262 262 262 262 261 261 261 261 261 261 261 261 261 261 261 261 261 261 261 261 261 261 261 261 261 261 261 261 261 261 261 262 262 262 262 262 262 262 262 262 262 262 263
267 267 266 266 266 266 265 265 265 265 264 264 264 264 263 263 263 262 262 262 262 262 262 261 261 261 261 261 261 260 260 260 260 260 260 260 260 260 260 261 261 261 260 261 261 261 261 261 261 261 261 261 261 261 262 261 261 261 261 262 262 262 262
267 266 266 266 265 265 265 265 265 264 264 264 264 263 263 263 263 262 262 262 262 262 261 261 261 261 261 260 260 260 260 260 260 260 260 260 260 260 260 260 260 260 260 260 260 261 261 261 261 261 261 261 261 261 261 261 261 261 261 261 261 261 262
266 266 266 265 265 265 265 265 264 264 264 264 264 263 263 263 262 262 262 262 262 261 261 261 261 260 260 260 260 260 260 260 260 260 260 260 260 260 260 260 260 260 260 260 260 260 260 261 261 261 261 261 261 261 261 261 261 261 261 261 261 261 261
266 265 265 265 265 265 264 264 264 264 264 264 263 263 263 262 262 262 262 262 261 261 261 261 260 260 260 260 260 259 259 259 259 259 259 259 259 260 260 260 260 260 260 260 260 260 260 260 260 260 260 260 260 260 260 260 260 261 261 261 261 261 261
265 265 265 265 264 264 264 264 264 264 264 263 263 263 263 262 262 262 262 261 261 261 261 260 260 260 260 259 259 259 259 259 259 259 259 259 259 259 259 259 259 260 260 260 260 260 260 260 260 260 260 260 260 260 260 260 260 260 261 261 261 261 261
265 265 264 264 264 264 264 264 264 264 263 263 263 263 262 262 262 262 261 261 261 261 260 260 260 260 259 259 259 259 259 259 259 259 259 259 259 259 259 259 259 259 259 259 259 259 259 259 259 259 260 260 260 260 260 260 260 260 260 261 261 261 261
265 264 264 264 264 264 264 263 263 263 263 263 263 262 262 262 262 261 261 261 261 261 260 260 260 260 260 260 260 260 260 260 260 260 259 259 259 259 259 259 259 259 259 259 259 259 259 259 259 259 259 259 260 260 260 260 260 260 260 261 261 261 261
264 264 264 264 263 263 263 263 263 263 263 262 262 262 262 262 262 261 261 261 261 261 261 261 261 261 261 261 260 260 260 260 260 260 260 260 260 259 259 259 258 258 258 258 258 259 259 259 259 259 259 259 260 260 260 260 260 260 260 261 261 261 261
264 264 263 263 263 263 263 263 263 262 262 262 263 263 262 262 262 262 262 261 261 261 261 261 261 261 261 261 261 261 261 260 260 260 260 260 260 260 259 259 259 259 259 259 258 259 259 259 259 259 259 260 260 260 260 260 260 260 261 261 261 261 262
264 264 263 263 263 263 263 262 262 262 262 263 263 264 264 263 263 263 263 262 262 262 261 261 261 261 261 261 261 261 261 260 260 260 260 260 260 260 260 260 260 259 259 259 259 259 259 259 259 260 260 260 260 260 261 261 261 261 261 261 261 261 262
264 263 263 263 263 262 262 262 262 262 262 263 264 264 264 264 264 263 263 263 263 262 262 262 262 261 261 261 261 261 260 260 260 260 260 261 261 261 261 261 261 261 261 261 260 260 260 260 260 260 261 261 261 261 261 261 261 261 261 261 261 261 262
263 263 263 262 262 262 262 262 261 261 262 263 263 264 264 264 264 264 263 263 263 263 262 262 262 261 261 261 260 260 260 260 260 260 260 260 260 260 260 261 261 262 262 262 262 262 262 262 262 262 261 262 262 262 262 261 261 261 261 261 261 261 262
263 263 263 262 262 262 261 261 261 261 261 262 263 264 264 264 264 264 263 263 263 262 262 262 261 261 260 260 260 260 259 259 259 259 259 259 259 259 259 260 260 261 261 261 262 261 261 261 261 261 262 262 262 262 262 262 262 262 262 262 262 262 262
263 262 262 262 261 261 261 261 260 260 261 262 263 264 264 264 264 263 263 263 262 262 262 261 261 260 260 260 259 259 259 259 259 258 258 258 259 259 259 260 260 261 261 261 261 261 261 261 261 262 262 262 262 262 262 262 262 262 262 262 262 263 263
262 262 262 261 261 260 260 260 260 260 261 262 263 263 263 263 263 263 262 262 262 261 261 261 260 260 259 259 259 259 259 259 259 259 258 258 258 259 259 259 260 261 261 261 262 262 262 262 262 263 263 263 263 263 263 263 262 262 262 263 263 263 263
262 261 261 261 260 260 259 259 259 259 260 261 262 263 263 262 262 262 262 261 261 261 261 260 260 260 259 259 259 259 259 260 260 260 259 259 259 259 259 259 260 261 261 262 262 263 263 263 263 263 264 264 264 264 263 263 262 262 262 262 263 263 263
261 261 260 260 260 259 259 259 258 258 259 261 262 262 262 262 262 262 261 261 261 260 260 260 260 259 259 259 259 259 259 260 261 261 261 260 260 260 260 260 260 261 261 262 262 263 263 263 263 263 263 263 263 262 262 261 261 261 261 261 261 261 262
260 260 260 260 259 259 258 258 258 258 258 259 261 261 262 262 261 261 261 261 260 260 260 260 260 259 259 259 259 260 260 261 261 261 261 261 261 261 261 261 261 261 262 262 262 262 262 262 262 262 262 262 261 261 261 261 260 260 259 259 260 260 260
260 259 259 259 259 258 258 257 257 258 258 258 260 261 261 261 262 261 261 261 261 260 260 260 260 260 259 260 260 261 262 262 262 262 263 262 262 262 262 262 262 262 262 261 261 260 260 260 260 261 261 261 261 261 261 260 259 259 258 258 259 259 260
259 259 259 259 258 258 257 257 257 257 257 258 259 260 261 261 261 261 261 261 260 260 260 260 260 260 260 260 260 261 262 262 263 263 263 263 263 263 263 262 261 261 260 260 259 259 259 259 259 259 260 260 260 260 260 259 258 258 257 257 258 258 259
258 258 258 258 258 257 257 257 256 257 257 257 258 260 261 261 261 261 261 261 261 261 260 260 260 260 260 260 260 261 262 262 263 263 263 263 263 263 262 260 259 259 259 258 258 257 257 257 258 258 258 258 258 258 258 258 258 257 256 256 257 257 257
257 257 256 257 257 257 256 256 256 257 257 257 258 259 260 261 261 262 262 262 261 261 261 261 260 260 260 260 260 261 262 262 262 262 262 262 262 261 260 259 258 258 257 257 257 256 256 256 256 256 256 256 256 256 256 256 256 256 255 255 256 256 256
257 256 255 255 256 256 256 256 256 257 257 258 258 258 259 261 261 261 261 261 261 261 261 261 260 260 260 260 261 262 262 261 261 260 260 260 260 259 258 258 257 257 256 256 255 255 254 255 255 255 255 255 255 255 254 254 254 255 254 254 255 255 255
256 255 255 255 255 255 256 256 257 257 258 258 259 259 259 260 261 261 260 260 260 260 260 260 260 260 260 261 261 261 260 260 259 259 258 258 257 257 257 257 256 256 255 255 254 254 254 254 254 254 254 254 254 254 253 254 254 254 254 254 255 255 255
255 255 255 254 254 255 256 256 257 258 259 259 259 259 259 260 260 260 260 260 260 260 259 260 260 260 260 260 259 259 259 258 258 258 257 257 256 256 256 256 256 255 254 254 254 253 253 253 253 253 253 253 253 253 253 253 253 253 254 254 254 255 255
255 255 254 254 255 255 256 256 257 258 259 259 259 259 259 260 259 260 260 260 260 260 260 260 260 259 259 258 258 258 258 257 257 257 256 256 256 256 256 255 255 254 253 253 253 252 252 252 252 252 252 252 252 252 252 252 253 253 254 254 254 254 255
256 255 255 255 255 256 255 256 257 257 258 259 259 259 260 260 260 260 260 260 260 260 260 259 259 258 258 257 257 257 256 256 256 256 256 255 255 255 255 254 253 252 252 252 252 251 251 251 251 251 252 252 252 252 252 252 253 253 254 254 254 254 255
257 257 257 257 257 257 256 256 257 259 259 260 260 260 260 260 260 260 260 260 261 260 259 258 257 257 256 256 256 255 255 255 255 255 255 255 254 253 253 252 251 251 251 251 250 250 250 251 251 251 251 251 251 251 252 252 253 253 253 253 253 253 254
259 259 259 259 259 259 258 258 259 260 261 261 261 261 261 261 261 261 261 261 260 259 258 257 256 255 255 255 255 254 254 254 254 253 253 253 252 252 251 251 250 250 249 250 250 250 250 250 250 250 250 250 251 251 252 252 253 253 253 253 252 252 253
261 262 262 261 261 261 261 261 261 261 261 261 262 262 262 262 262 262 261 260 259 258 257 256 255 255 254 254 254 253 253 253 252 251 251 251 250 250 250 249 249 249 249 249 249 249 249 249 249 250 250 250 250 251 252 252 252 252 252 252 252 252 252
261 262 262 262 262 262 261 261 261 260 261 261 261 261 261 261 261 261 260 259 258 257 256 255 254 254 254 253 252 252 252 251 250 250 250 249 249 249 249 248 248 248 248 248 248 248 248 248 249 249 250 250 250 251 251 251 251 252 251 251 251 251 251
259 260 260 260 260 260 260 260 260 260 260 260 260 260 260 259 259 259 259 258 256 256 255 254 254 253 253 252 252 251 251 250 250 249 249 249 248 248 248 248 248 248 247 247 247 247 247 248 248 249 249 250 250 250 251 251 251 251 251 251 251 251 251
257 258 257 256 256 257 257 257 257 257 257 257 257 257 257 257 258 259 259 257 255 255 254 253 253 252 252 252 251 251 250 250 250 249 249 249 248 248 248 248 248 248 247 247 247 247 247 247 247 248 249 249 250 250 250 250 250 250 250 250 250 250 250
256 256 256 255 255 255 255 255 255 255 255 255 256 256 257 258 258 258 257 256 254 254 253 253 252 252 252 251 251 250 250 250 249 249 249 249 249 248 248 248 248 248 247 247 247 247 247 247 247 248 249 249 249 249 249 250 250 250 250 250 250 250 250
254 255 255 254 254 254 254 254 254 254 255 255 257 258 258 257 255 255 254 254 254 253 253 252 252 252 251 251 251 250 250 250 249 249 249 249 249 248 248 248 248 248 247 247 247 247 247 247 247 247 247 248 248 249 249 250 250 250 249 249 250 250 251

ECMWFFLT1_925_thetae_114.txt.gz
Theta_e
273 272 272 271 271 270 270 270 269 269 269 269 268 268 268 268 268 267 267 267 267 267 266 266 266 265 265 265 265 265 265 265 265 264 265 264 264 264 264 265 265 265 265 265 265 265 265 265 265 265 265 265 265 266 265 265 265 265 264 264 264 264 265
273 272 272 271 271 270 270 270 269 269 269 268 268 268 268 268 267 267 267 267 267 266 266 266 265 265 265 265 265 265 264 264 264 264 264 264 264 264 264 264 264 265 265 265 265 265 265 265 265 265 265 266 265 265 265 265 265 265 264 264 264 264 264
273 272 271 271 270 270 270 270 269 269 269 268 268 268 268 267 267 267 267 267 266 266 266 266 265 265 265 265 264 264 264 264 264 264 264 264 264 264 264 264 264 264 264 264 264 264 264 265 265 265 265 265 265 265 265 264 264 264 264 264 264 264 264
273 272 271 271 270 270 270 269 269 269 268 268 268 268 267 267 267 267 266 266 266 266 266 266 265 265 265 264 264 264 264 264 264 263 263 263 263 263 263 263 264 264 264 264 264 264 264 264 264 264 265 265 264 264 264 264 264 264 264 264 264 264 263
272 271 271 270 270 270 269 269 269 268 268 268 268 267 267 267 267 266 266 266 266 266 266 265 265 265 265 264 264 264 264 264 263 263 263 263 263 263 263 263 263 263 263 263 263 263 264 264 264 264 264 264 264 264 264 264 264 264 264 264 264 264 263
272 271 271 270 270 269 269 269 268 268 268 268 267 267 267 266 266 266 266 266 266 265 265 265 265 265 264 264 264 264 263 263 263 263 263 263 263 262 263 263 263 263 263 263 263 263 263 263 263 264 264 264 264 264 264 264 264 264 264 264 264 264 264
272 271 271 270 269 269 269 268 268 268 267 267 267 267 266 266 266 266 265 265 265 265 265 265 265 264 264 264 264 263 263 263 263 262 262 262 262 262 262 262 262 262 262 262 263 263 263 263 263 263 263 263 264 264 263 264 264 264 264 264 264 264 264
272 271 270 270 269 269 268 268 268 267 267 267 266 266 266 265 265 265 265 265 265 265 265 264 264 264 264 263 263 263 263 262 262 262 262 262 262 261 261 261 261 262 262 262 262 262 262 263 263 263 263 263 263 263 263 263 264 264 264 264 264 264 264
271 271 270 269 269 268 268 267 267 267 266 266 265 265 265 265 265 264 264 264 264 264 264 264 264 263 263 263 263 263 262 262 262 262 262 262 261 261 261 261 261 261 261 262 262 262 262 262 263 263 263 263 263 263 264 264 264 264 264 264 264 264 264
271 270 269 269 268 268 267 267 267 266 266 266 265 265 264 264 264 264 264 264 263 263 263 263 263 263 263 263 263 262 262 262 262 262 262 262 261 261 261 261 261 261 261 262 262 262 262 262 263 263 263 263 263 263 263 263 263 263 263 264 264 264 264
270 269 269 268 268 267 267 267 267 266 266 266 266 266 265 265 264 264 264 264 264 263 263 263 263 263 263 263 263 263 262 262 262 262 262 262 262 262 261 261 261 261 261 261 262 262 262 262 263 263 263 263 263 263 263 263 263 263 263 264 264 264 264
269 269 268 268 268 267 267 266 266 266 266 266 267 267 267 266 266 265 265 265 265 264 264 263 263 263 263 263 263 263 263 263 262 262 262 262 262 262 262 262 261 261 261 261 261 262 262 262 262 262 262 263 263 263 263 263 263 263 263 263 264 264 264
269 268 268 268 267 267 266 266 266 266 266 266 267 267 267 267 267 266 266 266 265 265 265 264 264 264 263 263 263 263 263 263 263 263 262 262 262 262 262 262 262 262 262 261 261 261 262 262 262 262 262 262 262 262 263 263 263 263 263 263 264 264 264
268 268 268 267 267 266 266 266 266 265 265 266 266 267 267 267 267 267 267 267 266 266 265 265 265 264 264 264 263 263 263 263 263 262 262 262 262 262 262 262 263 263 263 262 262 262 262 262 262 262 262 262 262 262 262 263 263 263 263 263 263 264 264
268 267 267 267 266 266 265 265 265 265 265 266 266 266 267 267 267 267 267 266 266 266 266 265 265 265 265 264 264 263 263 263 262 262 262 262 261 262 262 262 262 262 262 262 262 262 262 262 262 262 262 262 262 262 262 263 263 263 263 263 263 263 263
267 267 267 266 266 265 265 265 265 264 265 265 266 266 267 266 266 266 266 266 266 265 265 265 265 265 264 264 264 263 263 263 262 262 262 261 261 261 261 261 261 262 262 262 262 262 262 262 262 262 262 262 262 262 262 262 262 263 263 263 263 263 263
266 266 266 266 265 265 264 264 264 264 264 265 265 266 266 266 266 265 265 265 265 264 264 264 264 264 264 263 263 263 263 263 263 262 262 261 261 261 261 260 261 261 261 262 262 262 262 263 263 263 263 264 264 264 263 263 263 263 263 263 263 263 263
266 266 265 265 265 264 264 264 264 263 263 264 265 265 265 265 265 265 265 264 264 264 264 264 264 263 263 263 262 262 263 263 263 263 263 262 261 261 261 261 261 261 261 261 262 262 262 263 263 263 264 264 264 264 264 263 263 263 263 263 263 263 263
265 265 265 265 264 264 263 263 263 263 262 263 264 265 265 265 264 264 264 264 264 264 263 263 263 263 263 262 262 262 263 263 263 263 263 263 262 262 262 261 261 261 261 261 261 262 262 262 263 263 263 263 263 262 262 262 262 262 262 262 262 262 262
264 264 264 264 264 263 263 262 262 262 262 262 263 264 264 264 264 264 263 263 263 263 263 263 263 263 263 263 263 263 263 263 264 264 263 263 263 263 262 262 262 262 261 261 262 262 262 262 262 262 262 262 262 262 261 261 261 261 261 261 261 261 261
264 263 263 263 263 263 262 262 262 262 262 262 262 263 264 264 264 263 263 263 263 263 263 263 263 263 263 262 263 263 264 264 264 264 264 264 263 263 263 263 263 262 262 262 262 262 262 262 262 261 261 261 261 261 260 260 260 260 260 260 260 260 261
263 263 262 262 262 262 262 262 262 262 262 262 262 263 263 264 263 263 263 263 263 263 263 263 262 262 262 262 262 263 263 264 264 265 265 265 265 264 264 264 263 263 262 262 262 262 261 261 261 261 260 260 260 260 260 260 260 260 260 259 259 259 259
262 261 261 261 261 261 261 261 261 262 263 262 262 262 262 263 263 263 263 263 263 263 263 263 262 262 262 262 263 263 263 264 265 265 265 265 265 264 264 264 263 262 261 261 261 261 261 260 260 260 260 260 260 260 259 259 259 259 258 258 257 257 257
261 261 260 260 260 261 261 260 261 262 263 262 262 262 261 262 263 263 263 263 263 263 263 263 263 263 263 263 263 263 264 264 264 264 264 264 264 263 262 262 262 261 260 260 260 260 260 260 260 260 259 259 259 258 258 257 257 257 257 257 256 256 256
261 261 260 260 260 260 260 260 260 261 262 262 262 261 261 261 262 263 263 263 263 263 263 263 263 263 263 263 263 263 263 264 263 263 263 263 262 261 261 261 260 260 259 259 259 259 259 259 259 258 258 258 257 257 256 256 255 255 255 255 255 255 255
261 261 260 260 260 260 260 260 259 260 261 262 261 261 261 261 261 262 262 262 262 262 262 262 262 262 262 262 262 262 262 262 262 262 262 261 261 260 260 259 259 259 258 258 258 258 258 258 258 257 257 256 256 255 255 255 255 255 255 255 255 255 255
260 260 260 260 260 260 259 259 259 259 260 261 261 261 261 261 261 261 261 261 261 261 261 261 261 261 261 261 261 261 261 262 261 261 261 260 260 259 259 258 258 258 257 257 257 257 257 257 256 256 255 255 255 255 255 255 254 254 254 254 254 255 255
260 260 260 260 260 260 260 260 259 259 260 261 262 262 262 262 261 261 261 261 261 261 261 261 261 260 260 260 261 261 261 261 261 260 260 260 259 259 258 258 257 256 256 256 256 256 256 255 255 255 254 254 254 254 254 254 254 254 254 254 254 254 254
260 260 260 259 259 260 260 260 260 261 262 262 262 262 262 262 262 262 262 262 262 262 262 261 261 260 260 260 260 260 260 260 260 260 259 259 258 258 258 257 256 256 256 255 255 255 255 254 254 254 254 254 253 253 253 253 253 253 253 253 253 254 254
260 260 260 260 260 260 261 261 262 262 263 263 263 263 263 263 263 263 263 263 263 263 261 261 261 261 261 260 260 260 260 260 260 259 259 258 258 257 257 256 256 255 255 255 255 254 254 254 253 254 253 253 253 252 252 252 252 252 252 253 253 254 254
261 262 262 262 262 262 262 263 263 263 263 264 264 264 264 264 264 264 264 264 263 262 262 261 261 261 261 260 260 260 260 259 259 259 258 258 257 256 256 255 255 255 255 254 254 253 253 253 253 253 252 252 252 252 251 251 252 252 252 252 253 253 254
262 263 264 264 264 264 264 264 264 264 264 264 264 264 264 264 264 264 264 263 262 262 262 261 261 262 261 261 260 260 259 259 258 258 257 257 257 256 255 255 255 254 254 253 253 253 252 252 252 251 251 251 251 251 251 251 251 252 252 252 253 253 253
262 263 263 263 263 263 263 263 263 263 262 262 262 262 262 262 261 262 262 261 261 261 261 261 261 261 261 260 260 259 258 258 258 257 257 256 256 256 255 255 254 254 253 252 252 252 252 251 251 250 250 250 250 250 250 250 251 251 251 252 252 253 253
260 260 260 260 260 260 260 260 260 260 259 259 259 259 259 259 259 260 261 261 261 261 261 261 260 260 259 259 259 258 257 257 256 256 256 255 255 255 255 254 253 253 252 252 251 251 251 250 250 250 250 250 250 250 250 250 250 250 251 251 252 252 252
258 258 258 258 257 258 258 258 258 257 257 257 257 258 258 259 260 260 260 260 260 259 259 259 258 258 258 257 257 256 256 256 255 255 255 254 254 254 254 253 252 252 251 251 250 250 250 250 250 249 249 249 249 249 249 249 250 250 250 250 251 251 251
257 257 257 256 256 256 256 256 256 256 256 256 257 259 259 259 259 259 259 258 258 257 257 257 256 256 256 256 255 255 255 255 254 254 254 254 254 253 253 252 251 251 250 250 250 250 250 249 249 249 249 249 249 249 249 249 249 249 249 249 250 250 251

ECMWFFLT1_925_thetae_117.txt.gz
Theta_e
278 277 276 275 275 274 273 273 272 272 272 272 272 272 271 271 271 271 270 270 270 270 269 269 269 269 268 268 268 268 268 268 268 267 267 267 267 267 267 267 267 267 267 267 267 267 267 267 267 267 267 267 267 267 267 267 267 267 267 267 267 267 267
277 277 276 275 275 274 273 273 273 272 272 272 272 272 271 271 271 271 270 270 270 270 269 269 269 268 268 268 268 267 267 267 267 267 267 267 267 267 267 267 267 267 267 266 267 266 266 267 267 267 266 266 267 267 267 267 267 267 267 267 267 267 266
277 277 276 275 275 274 273 273 273 272 272 272 272 271 271 271 271 270 270 270 270 270 269 269 269 268 268 268 267 267 267 267 267 267 267 267 266 266 267 267 266 266 266 266 266 266 266 266 266 266 266 266 266 266 267 267 266 266 266 266 266 266 266
277 277 276 275 274 274 273 273 272 272 272 272 271 271 271 271 270 270 270 270 270 269 269 269 269 268 268 267 267 267 267 267 266 266 266 266 266 266 266 266 266 266 266 266 266 266 266 266 266 266 266 266 266 266 266 266 266 266 266 266 266 266 266
276 276 275 275 274 274 273 273 272 272 272 272 271 271 271 271 270 270 270 269 269 269 269 269 268 268 268 267 267 267 266 266 266 266 266 266 266 266 266 265 265 265 265 265 265 265 265 265 265 265 265 265 265 265 266 266 266 266 266 265 265 265 265
276 275 275 274 274 274 273 273 272 272 272 271 271 271 271 270 270 270 269 269 269 269 268 268 268 268 268 267 267 267 266 266 266 266 265 265 265 265 265 265 265 265 265 265 265 265 265 265 265 265 265 265 265 265 265 265 265 265 265 265 265 265 265
275 275 275 274 274 273 273 272 272 272 272 271 271 271 270 270 270 269 269 269 268 268 268 268 268 267 267 267 267 266 266 266 265 265 265 265 265 265 264 264 264 264 264 264 264 264 264 264 264 265 265 265 265 265 265 265 265 265 265 265 265 265 265
275 275 274 274 273 273 273 272 272 271 271 271 270 270 270 269 269 269 269 268 268 268 268 267 267 267 267 267 266 266 266 265 265 265 265 264 264 264 264 264 264 263 263 263 263 264 264 264 264 264 264 264 265 265 265 265 265 265 265 265 265 265 265
275 274 274 273 273 273 272 272 271 271 271 271 270 270 269 269 269 268 268 268 267 267 267 267 267 267 266 266 266 266 266 265 265 265 264 264 264 264 264 263 263 263 263 263 263 263 263 263 264 264 264 264 264 265 265 265 265 265 265 265 265 265 265
274 274 273 273 272 272 272 271 271 271 271 270 270 269 269 268 268 268 267 267 267 267 266 266 266 266 266 266 266 265 265 265 265 265 264 264 264 264 263 263 263 263 263 263 263 263 263 263 263 264 264 264 264 264 265 265 265 265 265 265 265 265 265
274 273 273 273 272 272 271 271 271 271 270 270 270 269 268 268 267 267 267 266 266 266 266 265 265 265 265 265 265 265 265 265 265 265 265 264 264 264 263 263 263 263 263 263 263 263 263 263 263 263 264 264 264 264 264 264 265 265 265 265 265 265 265
273 273 272 272 272 271 271 271 271 270 270 270 270 270 269 268 267 266 266 266 266 265 265 265 265 265 265 265 265 265 265 265 265 265 265 265 264 264 264 264 263 263 263 262 263 263 263 263 263 263 263 264 264 264 264 264 264 264 264 264 264 264 264
272 272 272 272 272 271 271 271 270 270 270 270 270 270 270 269 268 267 267 266 266 266 266 266 265 265 265 265 265 265 264 264 264 264 264 264 264 264 264 264 264 264 263 263 262 262 263 263 263 263 263 263 263 263 264 264 264 264 264 264 264 264 264
272 271 271 271 272 271 270 270 270 269 270 270 270 270 270 270 269 268 268 267 267 266 266 266 266 266 265 265 265 265 265 264 264 264 264 264 264 264 264 264 264 264 264 264 263 263 263 263 263 263 263 263 263 263 263 263 263 263 263 263 263 264 264
271 271 271 271 271 270 270 269 269 269 269 270 270 270 270 270 269 269 268 268 267 267 267 267 267 266 266 266 266 265 265 265 264 264 264 264 264 264 264 264 264 264 264 264 264 264 263 263 263 263 263 263 263 263 263 263 263 263 263 263 263 263 263
271 271 271 271 270 269 269 269 268 268 269 269 269 269 269 269 269 268 268 268 267 267 267 267 267 266 266 266 266 266 266 266 265 264 264 264 263 263 263 263 263 263 264 263 263 263 263 263 263 263 263 263 263 263 263 263 263 263 263 263 263 263 263
270 270 270 270 269 269 268 268 268 268 268 269 269 269 269 268 268 267 267 267 267 267 267 267 267 266 266 266 266 266 266 266 266 265 264 263 263 263 262 262 263 263 263 264 264 264 264 264 264 264 264 264 264 264 263 263 263 263 263 263 263 263 264
269 269 269 268 268 268 267 267 267 267 267 268 269 269 268 268 267 267 267 267 267 266 266 266 266 266 266 265 265 265 266 266 266 266 264 263 263 262 262 262 262 262 262 263 263 264 264 264 264 264 265 265 265 265 265 264 264 264 263 264 264 264 264
268 268 267 267 267 267 266 266 266 266 266 267 268 268 268 267 267 267 266 266 266 266 266 265 265 265 265 265 265 265 266 266 266 266 265 265 264 263 263 262 262 262 262 262 262 263 263 264 264 264 264 264 264 264 264 263 263 263 263 263 264 264 264
267 267 267 266 266 266 266 266 266 265 266 266 267 268 267 267 267 266 266 266 266 265 265 265 265 265 265 265 266 266 266 266 266 266 265 265 265 264 263 263 263 262 262 262 262 262 262 263 263 263 263 263 263 263 263 263 262 262 262 262 263 263 263
267 266 266 266 265 265 265 265 265 265 265 265 266 267 267 267 267 266 266 265 265 265 265 264 264 264 264 265 265 266 266 266 266 266 266 265 265 265 264 264 263 263 263 263 262 262 262 262 262 263 263 263 263 263 263 263 262 262 262 262 262 262 262
266 265 265 265 265 264 264 264 264 264 264 264 265 266 267 267 266 266 266 265 265 265 264 264 264 264 264 264 265 265 266 266 266 266 266 266 266 266 265 265 265 264 263 263 263 263 263 263 263 263 263 263 263 262 262 262 262 262 261 261 261 261 261
265 264 264 264 264 264 264 264 264 263 264 264 264 265 266 266 266 266 266 265 265 264 264 264 264 264 264 264 265 265 265 265 266 266 266 266 267 267 266 266 266 265 264 264 264 263 263 263 263 263 263 263 262 262 262 262 261 261 261 260 260 260 260
264 264 264 264 264 264 263 263 263 263 263 263 263 263 264 265 266 266 266 266 265 265 265 264 264 264 264 264 265 265 265 266 266 266 266 266 266 266 266 265 265 265 264 264 263 263 263 263 263 262 262 262 262 262 262 261 261 260 260 260 260 259 259
265 264 264 264 264 264 263 263 263 263 262 262 262 262 263 264 265 266 266 266 265 265 265 265 265 265 265 265 265 265 265 265 265 265 265 265 265 264 264 263 263 263 263 263 262 262 262 262 262 262 262 262 261 261 261 260 260 260 259 259 258 258 258
265 265 264 264 264 264 263 263 263 263 262 262 262 262 262 263 264 264 264 265 265 265 264 264 265 265 265 265 265 265 264 264 264 263 263 264 264 263 263 262 262 262 262 262 262 262 262 261 261 261 261 261 260 260 259 259 258 258 258 257 257 257 257
264 264 264 264 264 263 263 263 263 262 262 262 261 261 262 262 263 263 263 263 263 263 263 263 264 264 264 264 263 263 263 263 263 263 263 263 263 263 262 262 262 262 262 261 261 261 261 261 260 260 260 259 258 258 258 257 257 257 257 257 256 256 256
264 264 264 264 263 263 263 263 263 262 262 262 261 261 261 262 262 263 263 262 262 262 262 262 262 262 263 263 262 262 262 262 262 262 262 262 262 262 262 262 261 261 261 260 260 260 260 260 259 259 259 258 257 257 257 256 256 256 256 256 256 256 256
264 264 263 263 263 263 263 263 263 263 262 262 262 262 262 262 262 263 263 263 263 262 262 262 262 262 262 262 262 262 262 262 262 262 262 262 262 262 261 261 260 260 259 259 259 259 259 258 258 258 257 257 256 256 256 256 256 256 255 255 255 255 255
264 263 263 263 262 262 262 262 262 263 263 264 264 264 264 264 264 264 264 264 264 263 262 262 262 262 262 262 262 262 262 262 262 262 262 262 262 261 261 260 259 259 259 259 258 258 258 258 257 257 257 256 256 256 256 255 255 255 254 254 254 254 254
264 264 264 264 263 263 262 262 263 263 264 265 265 266 266 266 265 265 265 265 264 264 263 263 263 263 263 263 262 262 262 262 262 262 262 262 261 261 260 259 259 259 258 258 258 258 257 257 257 256 256 256 255 255 255 255 254 254 253 253 253 253 254
265 265 265 265 265 265 264 264 264 264 264 265 265 265 266 266 265 265 265 265 264 263 263 263 263 263 263 263 263 263 262 262 262 262 262 261 261 260 259 259 259 258 258 258 257 257 256 256 256 255 255 255 255 254 254 253 253 253 253 253 253 253 253
264 265 265 265 265 265 265 265 264 264 264 264 264 264 264 264 263 263 263 263 263 262 262 263 263 263 263 263 263 263 262 262 262 261 261 261 261 260 260 259 258 258 257 257 257 256 256 255 255 255 254 254 253 253 252 252 252 252 252 252 252 253 253
262 262 262 262 262 262 262 262 262 262 262 262 261 261 261 261 261 262 262 262 262 262 262 262 262 262 262 262 262 262 262 262 261 261 261 260 260 260 259 259 257 257 256 256 255 255 255 254 254 254 253 253 252 252 252 251 251 251 251 252 252 252 252
260 260 260 260 260 260 259 259 259 259 259 259 259 260 260 260 260 261 261 261 261 261 262 262 262 262 262 262 262 261 261 260 260 260 259 259 259 258 258 257 256 256 255 255 254 254 254 254 253 253 252 252 251 251 251 251 251 251 251 251 251 252 252
260 260 259 259 259 259 258 258 258 258 258 258 259 260 260 260 260 260 260 260 261 261 261 261 261 261 261 260 260 260 259 259 259 258 258 258 257 257 257 256 255 255 254 254 254 254 253 253 252 252 251 251 251 251 250 250 250 250 250 250 251 251 251

ECMWFFLT1_925_thetae_120.txt.gz
Theta_e
283 282 281 279 279 278 278 277 276 276 275 275 274 274 273 273 273 272 272 272 272 271 271 271 270 270 270 270 269 269 269 269 269 269 269 268 268 268 268 268 268 267 266 267 267 267 267 267 267 267 267 267 267 267 267 267 267 267 267 267 267 267 267
283 282 281 279 278 278 277 277 276 276 275 274 274 274 273 273 273 272 272 272 272 271 271 271 270 270 270 270 269 269 269 269 269 268 268 268 268 268 268 268 267 267 266 266 267 267 267 267 267 266 267 267 267 267 267 267 266 266 266 267 267 267 267
283 282 280 279 278 278 277 277 276 275 275 274 274 274 273 273 273 272 272 272 271 271 271 270 270 270 270 269 269 269 269 269 268 268 268 268 268 268 267 267 267 267 266 266 266 267 266 266 266 266 266 266 266 266 266 266 266 266 266 266 266 266 266
283 281 280 279 278 278 277 276 276 275 274 274 274 273 273 273 273 272 272 272 271 271 271 270 270 270 269 269 269 269 269 268 268 268 268 268 267 267 267 267 267 267 267 266 266 266 266 266 266 266 266 266 266 266 266 266 266 266 266 266 266 266 266
282 281 279 279 278 277 277 276 275 275 274 274 274 273 273 273 273 272 272 272 271 271 271 270 270 270 269 269 269 269 268 268 268 268 268 267 267 267 267 267 267 266 266 266 266 266 266 266 265 265 265 265 265 265 265 265 265 265 265 265 265 265 265
281 280 279 278 278 277 276 276 275 275 274 274 274 273 273 273 273 272 272 272 271 271 271 270 270 270 269 269 269 268 268 268 268 267 267 267 267 267 266 266 266 266 266 266 266 265 265 265 265 265 265 265 265 265 265 265 265 265 265 265 265 265 265
280 279 278 278 277 277 276 276 275 275 274 274 274 273 273 273 272 272 272 271 271 271 271 270 270 270 269 269 269 268 268 268 267 267 267 267 267 266 266 266 266 266 265 265 265 265 265 265 265 265 265 265 265 265 265 265 265 265 265 265 265 265 265
279 278 278 277 277 276 276 275 275 275 274 274 274 273 273 273 272 272 272 271 271 271 270 270 270 269 269 269 269 268 268 268 267 267 267 267 266 266 266 266 265 265 265 265 264 264 264 264 264 264 264 264 264 264 264 264 264 264 264 265 265 265 265
279 278 277 277 276 276 276 275 275 275 274 274 274 273 273 272 272 272 271 271 271 270 270 270 269 269 269 269 268 268 268 268 268 267 267 266 266 266 265 265 265 265 264 264 264 264 263 263 263 263 263 263 264 264 264 264 264 264 264 264 265 265 265
278 277 277 276 276 276 275 275 275 274 274 274 273 273 272 272 272 271 271 271 270 270 270 269 269 269 269 268 268 268 268 268 267 267 267 266 266 266 265 265 265 264 264 264 263 263 263 263 263 263 263 263 263 264 264 264 264 264 264 264 264 264 264
277 277 276 276 276 275 275 275 274 274 274 274 273 273 272 272 271 271 271 270 270 269 269 269 269 268 268 268 268 267 267 267 267 267 267 266 266 266 265 265 264 264 264 263 263 263 263 263 263 263 263 263 263 263 264 264 264 264 264 264 264 264 264
277 276 276 276 275 275 275 274 274 274 274 274 274 273 272 272 271 271 270 270 269 269 269 268 268 268 268 267 267 267 267 267 266 266 266 266 266 266 266 265 265 264 264 263 263 263 263 263 263 263 263 263 263 263 263 263 264 264 264 264 264 264 264
276 276 275 275 275 274 274 274 273 274 274 274 274 274 273 272 271 270 270 269 269 268 268 268 267 267 267 267 266 266 266 266 266 266 266 266 266 266 266 266 266 265 265 264 263 263 263 263 263 263 263 263 263 263 263 263 263 263 264 264 264 264 264
275 275 275 274 274 274 273 273 273 273 274 274 275 275 274 272 271 270 269 269 268 268 268 267 267 266 266 266 266 266 265 265 265 265 265 265 265 265 265 266 266 266 266 265 264 264 263 263 263 263 263 263 263 263 263 263 263 263 263 263 263 263 263
275 274 274 274 274 273 273 272 272 273 274 275 275 275 274 273 271 270 269 269 268 268 268 267 267 266 266 266 266 266 266 265 265 265 265 265 265 265 265 265 265 265 265 265 265 265 264 264 264 264 263 263 263 263 263 263 263 263 263 263 263 263 263
274 274 273 273 273 272 272 272 272 273 274 274 274 274 274 273 272 270 269 269 268 268 268 268 267 267 267 266 266 266 266 266 266 265 265 265 265 265 264 264 265 265 265 265 265 265 265 265 264 264 264 264 264 263 263 263 263 263 263 263 263 263 263
273 272 272 272 272 272 271 271 271 272 273 273 273 273 272 272 272 271 270 269 269 268 268 268 267 267 267 267 267 266 267 267 267 266 265 265 265 265 264 264 264 265 265 265 266 266 265 265 265 265 265 265 265 265 264 263 263 263 263 262 262 262 263
271 271 271 271 271 271 271 271 271 272 272 272 272 272 272 271 271 270 270 269 269 269 268 268 267 267 267 267 267 267 267 268 268 267 267 266 265 265 264 264 264 264 264 265 265 266 266 266 266 266 266 266 266 266 266 264 263 263 263 263 262 263 263
270 270 270 270 270 270 270 270 271 270 270 271 271 271 271 271 270 269 269 268 268 268 267 267 267 267 267 267 267 267 267 268 268 268 268 267 266 265 265 265 265 264 264 264 264 264 264 265 265 266 265 265 265 266 266 265 264 264 263 263 263 263 263
270 269 269 270 270 270 269 269 269 269 269 269 270 270 270 270 270 269 268 268 267 267 267 266 266 266 266 267 267 268 268 268 268 268 267 267 267 266 266 266 265 264 264 264 263 264 264 264 264 264 264 264 264 264 264 264 264 264 263 263 263 263 263
269 269 269 268 268 268 268 268 268 267 267 268 269 269 270 270 269 269 268 268 267 267 266 266 266 266 266 266 267 267 268 268 268 268 268 267 267 267 266 266 265 265 264 264 263 263 263 263 263 263 263 263 263 263 264 264 264 263 263 263 263 263 263
268 268 268 267 267 267 267 267 267 266 266 267 267 268 269 269 269 268 268 267 267 266 266 266 266 265 265 265 266 267 267 268 268 268 268 268 267 267 267 267 266 265 265 264 263 263 263 262 262 262 262 262 263 263 263 264 264 264 263 263 263 263 262
267 267 267 266 266 266 266 266 266 265 265 265 266 267 268 269 269 269 268 268 267 266 266 266 265 265 265 265 266 266 267 267 267 268 268 268 268 268 268 268 267 266 265 264 264 263 263 262 262 262 262 262 262 263 263 263 263 264 263 263 263 263 262
266 266 266 265 265 265 265 265 265 265 265 265 265 265 267 268 268 269 269 268 267 267 266 266 265 265 265 265 266 266 267 267 267 267 267 268 268 268 267 267 267 266 266 265 264 264 263 263 263 263 262 262 263 263 263 263 263 263 263 263 262 262 262
266 265 265 265 265 265 265 265 264 264 264 264 264 264 265 266 267 268 268 268 268 267 267 266 266 266 266 266 266 266 267 267 267 267 267 266 266 266 266 266 265 265 265 265 264 264 264 264 263 263 263 263 263 263 263 263 262 262 262 262 262 262 261
265 265 265 265 265 265 264 264 264 264 264 264 264 263 264 264 265 266 266 266 267 267 267 267 267 267 266 266 266 266 266 266 266 266 265 265 265 265 265 264 264 264 264 264 264 264 264 264 263 263 263 263 263 263 262 262 262 262 261 261 261 260 260
265 265 265 264 264 264 264 264 264 264 264 263 263 263 263 263 263 263 264 264 265 265 265 266 266 266 266 266 266 265 265 265 265 265 265 264 264 264 264 264 264 264 263 263 263 263 263 263 263 263 263 262 262 262 262 261 261 261 261 260 260 259 259
265 265 265 264 264 264 264 264 264 264 263 263 263 263 263 263 262 262 262 263 263 264 264 264 264 264 264 264 264 264 264 264 264 264 264 263 263 263 263 263 263 263 263 263 263 263 263 263 262 262 262 262 261 261 261 261 260 260 260 259 259 258 257
265 265 264 264 264 264 263 263 263 263 263 263 263 263 263 263 263 263 263 264 264 264 263 263 263 263 263 263 263 263 263 263 263 263 263 263 262 262 262 262 262 262 262 262 262 262 262 262 262 261 261 261 260 260 260 260 259 259 258 258 257 257 256
265 265 265 265 264 264 264 263 263 263 264 264 265 265 264 264 264 264 264 265 265 264 263 262 262 262 262 262 262 262 262 262 262 262 262 262 262 262 262 262 262 262 262 262 262 262 261 261 261 260 260 260 259 259 259 258 258 258 257 257 256 256 255
266 266 266 266 266 265 265 265 265 264 265 265 266 266 266 266 266 266 265 265 264 263 263 263 263 262 262 262 261 261 261 261 261 261 261 261 261 262 262 262 262 262 262 261 261 261 261 260 260 260 259 259 259 258 258 257 257 257 256 256 256 255 255
266 266 266 266 267 267 266 266 266 265 265 266 266 266 266 266 266 266 266 266 265 264 263 263 263 263 262 262 262 262 262 262 261 261 261 261 261 261 262 262 262 262 261 261 260 260 260 259 259 259 259 258 258 258 257 257 256 256 255 255 255 254 254
264 264 264 265 265 265 265 266 265 265 265 265 265 265 264 264 264 264 265 264 264 263 263 263 263 263 263 263 262 262 262 262 262 262 262 261 261 261 261 261 262 261 261 260 260 259 259 259 259 258 258 257 257 257 256 256 255 255 255 254 254 253 253
262 262 261 261 262 262 262 262 262 262 262 261 261 262 262 262 262 262 263 263 263 263 263 262 262 262 263 263 263 262 262 262 262 262 262 262 261 261 261 261 261 261 260 260 259 259 259 258 258 258 257 257 256 256 255 255 254 254 254 253 252 252 252
260 260 260 260 260 260 260 260 260 260 260 260 260 261 261 261 261 261 261 261 261 261 261 262 262 262 262 262 262 262 262 262 262 262 262 262 261 261 261 261 260 260 260 259 259 258 258 258 258 257 257 256 255 255 254 254 253 253 253 252 252 252 251
260 260 260 260 260 260 260 260 260 260 260 260 261 261 262 261 261 261 260 260 260 260 260 260 260 261 261 261 261 261 261 261 261 261 261 261 261 261 260 260 259 259 259 258 258 258 257 257 257 256 256 255 254 254 253 253 253 252 252 252 251 251 251

ECMWFFLT1_925_thetae_123.txt.gz
Theta_e
285 284 283 281 281 280 280 279 279 278 278 277 277 277 276 276 275 275 274 274 273 273 273 273 272 272 272 272 272 271 271 271 271 271 271 270 270 270 270 270 269 268 268 268 268 268 268 268 268 268 268 268 267 267 267 267 267 267 267 267 267 267 267
285 284 283 282 281 280 280 279 279 278 278 277 277 276 276 276 275 275 274 274 274 273 273 272 272 272 272 272 271 271 271 271 271 270 270 270 270 270 269 269 269 268 267 267 268 268 268 267 267 267 267 267 267 267 267 267 267 267 267 267 267 267 267
286 285 284 282 281 280 280 279 279 278 278 277 277 276 276 276 275 275 274 274 274 273 273 272 272 272 272 272 271 271 271 271 270 270 270 270 269 269 269 269 269 268 267 267 267 267 267 267 267 267 267 267 267 267 267 266 266 266 266 266 266 266 266
286 285 284 283 282 281 280 279 279 278 278 277 277 277 276 276 275 275 274 274 274 273 273 272 272 272 272 271 271 271 270 270 270 270 270 269 269 269 269 269 268 268 268 267 267 267 267 267 267 267 267 267 266 266 266 266 266 266 266 266 266 266 266
285 285 284 283 282 281 280 279 279 278 278 277 277 276 276 276 275 275 274 274 274 273 273 273 272 272 272 271 271 270 270 270 270 270 269 269 269 269 268 268 268 268 268 267 266 266 267 267 266 266 266 266 266 266 266 266 266 266 266 266 266 265 265
285 285 284 283 282 281 281 280 279 278 278 277 277 276 276 276 275 275 274 274 274 273 273 273 272 272 272 271 271 270 270 270 270 269 269 269 269 268 268 268 268 267 267 267 267 266 266 266 266 266 266 266 266 266 265 265 265 265 265 265 265 265 265
285 285 284 284 283 282 281 280 279 278 278 277 277 276 276 275 275 275 274 274 274 273 273 273 272 272 272 271 271 270 270 270 269 269 269 269 268 268 268 268 267 267 267 267 266 266 266 266 266 266 265 265 265 265 265 265 265 265 265 265 265 265 265
285 284 284 283 282 281 281 280 279 278 277 277 276 276 276 275 275 274 274 274 273 273 273 273 272 272 272 271 271 271 270 270 269 269 269 268 268 268 268 267 267 267 266 266 266 266 265 265 265 265 265 265 265 265 264 265 264 264 264 264 264 264 264
284 284 283 282 281 281 280 279 278 278 277 277 276 276 275 275 275 274 274 274 273 273 273 272 272 272 271 271 271 271 271 270 270 269 269 268 268 268 267 267 267 266 266 266 265 265 265 265 264 264 264 264 264 264 264 264 264 264 264 264 264 264 264
283 282 282 281 280 279 279 278 278 277 277 276 276 276 275 275 274 274 274 273 273 273 272 272 272 272 271 271 271 271 271 270 270 270 269 269 268 268 267 267 266 266 265 265 265 264 264 264 264 264 264 264 264 264 264 264 264 263 264 264 263 263 264
282 281 281 280 279 279 278 278 277 277 277 276 276 276 275 275 274 274 274 273 273 272 272 272 272 271 271 271 271 270 270 270 270 269 269 269 269 268 268 267 266 265 265 265 264 264 264 264 264 264 264 264 264 264 263 263 263 263 263 263 263 263 263
281 280 280 279 278 278 278 277 277 277 276 276 276 276 275 274 274 274 273 273 273 272 272 271 271 271 271 271 270 270 270 269 269 269 269 269 268 268 268 267 267 266 265 265 264 264 264 264 264 264 264 264 264 263 263 263 263 263 263 263 263 263 263
280 279 279 278 278 277 277 277 277 276 276 277 277 277 276 275 274 273 273 273 272 272 272 271 271 270 270 270 270 270 269 269 269 268 268 268 268 268 267 267 267 267 266 266 265 264 264 264 264 264 263 264 264 263 263 263 263 263 263 263 263 263 263
278 278 278 277 277 277 277 277 276 276 276 277 277 278 277 275 274 273 273 272 272 272 271 271 271 270 270 270 269 269 269 269 268 268 268 268 267 267 267 267 267 267 267 267 266 265 265 264 264 264 264 264 264 263 263 263 263 263 263 263 263 263 263
277 277 277 277 277 276 276 276 276 275 276 277 277 278 277 276 274 273 273 272 272 271 271 271 271 270 270 269 269 269 269 268 268 268 268 267 267 267 267 266 266 266 267 267 266 266 266 265 265 265 264 264 264 264 264 263 263 263 263 263 263 263 263
276 276 276 276 276 275 275 275 275 275 276 277 277 277 277 276 274 273 272 272 271 271 271 271 271 270 270 269 268 268 268 268 268 267 267 267 266 266 266 266 266 266 266 266 266 266 266 266 266 265 265 265 264 264 264 264 263 263 263 263 262 262 262
275 275 275 275 275 274 274 274 274 274 275 276 276 277 277 276 274 272 272 271 271 271 271 271 270 270 269 268 268 268 268 268 268 267 266 266 265 265 265 265 265 266 266 267 267 267 267 267 267 266 266 266 266 266 265 264 263 263 263 262 262 262 262
274 274 273 273 273 273 273 273 273 274 274 275 276 276 276 275 274 272 271 271 271 271 270 270 270 269 269 268 268 268 268 268 268 268 267 266 265 265 265 265 265 265 266 266 267 267 267 267 268 268 267 268 268 267 267 265 264 263 263 263 262 262 262
272 272 272 272 272 272 272 272 272 273 273 274 275 275 275 275 273 272 271 271 270 270 270 269 269 269 269 269 268 268 268 269 269 268 268 267 266 265 265 265 265 265 265 265 265 266 266 267 267 267 267 267 267 267 267 266 265 264 263 263 263 263 263
271 271 271 271 271 271 271 271 272 272 272 273 274 274 274 274 273 272 271 271 270 269 269 269 269 269 269 269 269 269 269 269 269 269 269 268 267 266 266 266 266 266 265 265 265 265 265 265 266 266 266 266 266 266 266 266 265 264 264 263 263 263 263
270 270 270 270 270 270 270 270 271 271 271 271 272 272 273 272 272 271 271 271 270 269 269 268 268 268 268 268 269 269 269 269 269 269 269 269 268 267 267 267 267 266 266 266 265 265 265 265 265 265 265 265 265 265 265 265 265 264 264 264 264 263 263
269 269 269 269 269 269 269 269 269 269 269 269 270 270 271 271 271 271 270 270 270 269 269 268 268 268 268 268 268 269 269 269 269 269 269 269 269 269 269 268 268 267 266 266 265 265 264 264 264 264 264 264 265 265 265 265 265 264 264 264 263 263 263
268 268 268 268 268 268 268 268 268 268 267 267 268 268 269 270 270 270 270 270 269 269 269 268 268 268 267 267 267 268 268 269 269 269 269 269 269 269 269 269 269 268 267 266 266 265 264 264 264 263 263 264 264 265 265 265 265 265 265 264 264 263 263
267 267 267 267 267 267 267 267 266 266 266 266 266 267 267 268 269 269 270 270 269 269 269 268 268 268 267 267 268 268 268 268 268 269 269 269 269 269 269 269 268 268 267 266 265 265 264 264 264 263 263 263 264 265 265 265 265 265 265 264 264 264 263
267 266 266 266 266 266 266 266 266 266 266 265 265 265 266 267 267 268 268 268 269 269 268 268 268 268 268 268 268 268 268 268 268 268 268 268 268 268 268 268 267 267 267 266 265 265 264 264 264 264 264 263 264 264 264 264 264 264 264 264 263 263 263
266 265 265 265 265 265 265 265 265 265 265 265 265 265 265 265 266 266 266 266 266 267 267 267 268 268 268 268 268 268 268 268 267 267 267 267 267 267 267 266 266 266 265 265 265 265 265 264 264 264 264 264 263 263 263 263 263 263 263 263 263 262 262
265 265 264 264 264 265 265 265 264 264 264 264 264 264 264 264 264 264 264 264 264 264 264 265 265 266 267 267 267 267 267 267 267 267 267 266 266 266 266 266 265 265 265 265 265 265 265 265 265 265 264 264 263 263 263 263 263 263 263 263 262 262 262
264 264 264 264 264 264 264 264 264 264 264 264 264 264 264 264 263 263 263 263 263 263 263 263 263 263 264 265 266 266 266 267 266 266 266 266 266 265 265 265 265 264 264 264 264 264 264 264 264 264 264 264 263 263 263 263 263 262 262 263 262 261 260
265 265 265 265 265 264 264 264 264 265 265 265 265 265 264 264 264 264 264 264 265 264 264 263 262 262 262 263 263 264 264 265 265 265 265 265 265 265 265 264 264 264 263 263 263 263 263 263 263 263 263 263 263 263 263 263 262 262 262 261 261 260 260
266 266 266 266 266 266 265 265 266 266 266 266 266 266 266 266 266 266 266 266 266 264 263 262 262 261 261 262 262 262 262 263 263 263 263 263 264 264 263 263 263 263 263 263 263 263 263 262 262 262 262 262 262 262 262 262 262 261 261 260 259 258 259
266 266 266 266 266 266 266 266 266 266 266 267 267 267 267 267 267 267 266 266 265 264 263 262 262 262 262 262 261 261 262 262 262 262 262 262 262 262 262 262 262 262 262 262 262 262 262 262 262 261 261 261 261 262 261 261 260 260 260 259 259 258 258
264 265 265 264 264 264 264 264 264 264 265 265 266 266 265 265 265 265 265 265 264 264 263 263 263 262 262 262 262 261 261 261 261 261 261 261 261 261 261 261 262 262 262 261 261 261 261 261 261 261 261 261 261 261 260 260 259 259 258 258 258 257 257
262 262 262 262 262 262 263 263 263 263 263 263 263 263 263 263 263 263 263 264 263 263 263 263 263 263 263 263 262 262 262 261 261 261 261 261 261 261 261 261 261 261 261 261 261 261 261 261 261 261 260 260 260 259 259 258 258 258 257 257 256 256 256
261 260 260 260 260 260 261 261 261 261 261 261 261 262 262 262 262 263 262 262 262 261 261 261 261 261 262 262 262 262 262 262 261 261 261 261 261 261 261 261 261 261 261 261 261 261 260 260 260 260 260 259 259 258 258 258 257 257 256 256 255 255 255
260 260 259 259 259 259 259 259 259 259 259 260 261 262 262 261 260 259 259 259 259 259 259 259 259 259 260 260 261 261 261 262 262 262 261 261 261 261 261 261 261 261 261 261 261 260 260 260 260 260 259 259 258 258 257 257 257 257 256 255 255 254 254
258 259 258 258 258 258 258 258 258 258 259 260 261 261 259 258 257 257 257 257 257 257 257 257 258 258 258 259 259 259 260 260 261 261 261 261 261 261 261 261 261 261 261 260 260 260 260 260 259 259 259 258 258 257 257 257 257 256 255 255 254 254 253

ECMWFFLT1_925_thetae_129.txt.gz
Theta_e
286 286 286 285 285 285 284 283 283 282 282 281 281 281 280 280 280 279 279 279 278 278 278 277 277 277 277 277 276 276 276 275 275 275 275 275 275 275 275 275 275 276 276 275 274 274 274 274 273 273 272 272 272 271 271 271 271 271 270 270 270 270 270
287 286 286 286 285 285 284 283 283 282 282 281 281 280 280 280 279 279 279 279 278 278 278 277 277 277 277 277 276 276 276 275 275 274 274 274 274 274 274 275 275 275 276 275 273 273 273 273 273 272 272 272 271 271 271 271 270 270 270 270 270 270 270
286 286 286 286 285 285 284 284 283 282 282 281 281 281 280 280 280 279 279 279 278 278 278 277 277 277 277 277 276 276 276 275 275 274 274 274 274 274 274 274 274 274 275 275 274 272 272 272 272 272 272 272 271 271 271 270 270 270 270 270 270 270 269
286 286 286 286 286 285 285 284 284 283 282 282 281 281 281 280 280 279 279 279 279 278 278 277 277 277 277 276 276 276 276 275 275 274 274 274 274 274 274 274 274 274 274 274 274 272 272 271 271 271 271 271 271 270 270 270 270 270 270 269 269 269 269
286 286 286 286 286 286 285 285 284 283 282 282 281 281 281 280 280 280 279 279 279 279 278 278 277 277 277 276 276 276 275 275 275 274 274 274 273 273 273 273 273 274 274 274 273 272 271 271 271 270 270 270 270 270 269 269 269 269 269 269 269 269 268
285 285 285 286 286 286 285 285 284 284 283 282 282 281 281 280 280 280 279 279 279 279 278 278 278 277 277 276 276 276 275 275 275 274 274 273 273 273 273 273 272 273 273 273 273 272 270 270 269 269 269 269 270 269 269 269 269 269 269 268 268 268 268
283 283 284 284 284 285 285 285 284 284 283 282 282 281 281 280 280 280 279 279 279 279 278 278 278 277 277 276 276 276 275 275 275 274 274 274 273 273 273 273 272 272 272 272 272 271 270 269 269 269 269 269 269 269 268 268 268 268 268 268 267 267 267
281 282 282 282 283 283 283 284 284 284 283 282 282 281 280 280 280 279 279 279 279 279 279 278 278 278 277 277 276 276 276 275 275 274 274 273 273 273 273 272 272 272 271 271 271 271 270 269 268 268 268 268 268 267 267 267 267 267 267 267 267 267 267
281 281 281 281 281 281 282 282 282 282 282 282 281 281 280 280 280 279 279 279 279 279 278 278 278 278 277 277 277 276 276 275 275 275 274 274 273 273 273 272 272 271 271 271 270 270 269 268 267 267 267 266 267 267 267 267 267 267 267 267 267 266 266
280 280 280 280 280 280 280 281 281 281 281 281 281 280 280 279 279 279 279 279 278 278 278 278 278 277 277 277 277 276 276 275 275 275 275 274 274 273 273 272 272 271 271 271 270 270 269 267 267 267 266 266 267 267 267 267 267 266 266 266 265 265 266
278 279 279 279 279 279 279 279 279 279 280 280 280 280 280 279 279 279 279 278 278 278 278 278 277 277 277 276 276 276 276 275 275 275 275 274 274 274 273 273 272 271 271 270 270 269 269 268 267 267 266 267 267 267 266 266 266 266 265 265 264 264 265
277 277 277 277 278 278 278 278 278 278 278 278 279 280 280 280 279 279 278 278 278 278 277 277 277 276 276 276 276 276 275 275 275 274 274 274 274 274 274 274 273 272 271 270 270 269 269 268 268 267 267 267 267 266 266 266 266 266 265 265 264 264 265
275 275 275 276 276 276 276 276 277 277 277 278 278 279 280 280 279 279 278 278 278 277 277 277 276 276 276 275 275 275 275 274 274 274 274 273 273 273 273 273 273 273 273 272 271 270 269 268 268 267 267 267 267 267 266 266 265 265 265 265 265 265 265
274 274 274 274 274 274 274 275 275 276 276 277 278 278 279 279 279 279 279 278 278 277 277 276 276 276 275 275 274 274 274 274 273 273 273 273 273 273 273 272 272 273 273 272 271 270 270 269 269 269 269 268 268 267 267 266 266 266 266 265 265 266 265
273 273 273 273 273 273 273 273 274 274 275 276 277 278 278 278 278 279 279 278 278 277 277 276 276 276 275 274 274 274 274 273 273 273 272 272 272 272 272 272 272 272 272 272 271 271 271 270 270 270 270 269 268 268 268 268 267 267 267 266 266 265 264
272 272 272 272 272 272 272 272 272 273 274 275 276 276 277 277 277 277 277 277 277 277 276 276 276 275 275 274 274 274 274 273 273 272 272 272 272 272 272 271 272 272 272 272 271 271 271 271 270 270 270 269 269 268 268 268 267 266 266 265 264 263 263
270 271 271 271 271 271 271 271 271 272 273 274 274 275 275 275 275 275 275 276 276 276 276 275 275 275 275 274 274 274 273 273 273 272 272 272 272 271 271 271 271 271 271 272 272 271 271 271 270 270 269 269 268 268 268 267 265 265 265 264 263 262 263
270 270 270 270 270 270 270 270 270 270 271 272 273 274 274 273 273 273 274 274 274 274 275 274 274 274 274 274 274 273 273 273 273 272 272 272 271 271 271 270 270 270 270 271 272 272 272 271 271 270 270 269 269 269 268 267 266 265 264 263 263 263 263
269 269 269 269 269 269 268 269 269 269 270 271 272 272 272 272 272 272 273 273 272 273 273 273 273 273 273 273 273 273 273 274 274 273 272 271 271 270 270 270 270 270 270 270 270 271 272 272 272 271 271 270 270 270 269 268 267 267 265 264 263 263 263
267 268 268 268 268 268 267 267 267 268 268 269 270 271 271 271 270 271 271 271 271 271 271 272 272 272 272 272 272 272 273 274 274 274 273 272 271 270 270 270 270 270 270 270 270 270 270 270 271 271 271 270 270 270 270 269 268 267 266 265 264 264 263
266 266 267 267 267 267 266 266 266 266 267 268 268 269 270 269 269 269 270 270 271 271 271 271 271 271 271 271 272 272 273 273 274 274 273 272 271 271 271 270 270 270 270 269 269 269 269 269 269 269 269 269 269 269 269 269 268 268 267 266 266 265 264
265 265 265 265 266 266 266 265 265 265 266 266 267 268 268 269 269 269 270 270 270 270 270 270 270 271 271 271 271 272 272 272 273 273 273 273 272 272 272 271 270 270 269 268 268 267 267 267 267 267 267 267 267 267 268 268 268 267 267 267 267 266 265
264 264 264 265 265 265 266 266 266 266 266 266 266 267 268 268 268 269 269 268 268 268 269 269 269 270 270 270 270 271 272 272 273 273 273 273 273 273 272 271 271 270 269 268 267 267 266 266 266 266 266 266 266 266 266 266 267 266 266 266 266 266 266
264 264 264 264 265 265 266 266 266 266 266 266 266 266 267 267 268 268 267 267 266 266 266 267 267 268 269 270 270 271 271 271 272 272 272 272 272 272 272 272 272 271 269 268 267 267 266 266 266 266 266 266 266 267 266 266 266 266 266 266 266 266 266
263 263 263 264 264 265 265 265 265 265 265 265 265 265 266 266 267 267 266 266 266 266 265 266 266 267 268 269 269 269 269 269 270 270 270 270 271 271 271 271 271 271 270 269 268 267 267 267 266 266 267 267 268 267 266 265 265 265 265 265 265 265 265
263 263 263 264 264 264 264 264 264 264 264 264 265 265 266 266 266 266 267 266 266 266 266 266 266 266 266 266 266 266 266 266 267 267 268 268 269 269 269 270 270 270 270 269 269 268 268 267 267 267 267 267 267 266 265 265 265 265 265 264 264 264 264
263 264 264 264 264 263 263 263 263 263 263 264 265 265 266 266 266 266 266 266 266 266 266 266 266 265 265 264 264 264 264 264 265 265 265 266 267 268 268 268 269 269 269 269 269 268 268 268 267 267 267 266 266 265 265 265 265 265 264 264 264 263 262
263 264 264 263 263 262 262 262 262 262 263 264 265 265 266 266 266 266 266 265 265 265 265 265 265 264 264 264 264 264 264 264 264 264 264 264 265 266 267 268 268 268 268 268 268 268 267 267 267 267 266 266 265 265 265 265 265 264 264 264 263 261 261
265 265 263 262 261 261 261 262 262 262 263 264 264 265 265 265 266 266 264 263 264 264 264 264 264 264 264 264 263 263 263 263 263 264 264 263 263 264 265 266 267 267 267 267 267 267 266 266 266 266 266 266 265 265 265 265 264 264 264 263 262 261 261
264 264 262 261 261 261 261 262 261 261 262 263 264 264 264 264 265 264 262 261 262 263 262 262 262 262 262 262 262 262 261 262 262 262 262 263 263 263 263 264 265 266 266 266 266 266 266 266 265 265 265 265 265 265 265 265 265 264 264 262 261 260 260
263 262 261 260 260 260 261 260 260 260 261 262 263 263 262 262 263 262 260 258 259 260 259 258 258 258 259 259 259 259 259 260 260 260 260 261 261 262 262 262 263 264 264 265 265 265 265 265 264 264 264 264 264 264 264 264 264 264 263 262 261 261 260
260 260 259 259 260 260 260 259 258 259 260 261 262 261 259 258 260 259 257 257 257 257 256 256 256 256 256 257 257 257 258 258 258 259 259 259 260 260 261 261 262 262 263 263 263 263 263 263 263 263 263 264 264 263 263 263 263 262 262 261 261 261 260
257 257 257 257 258 258 258 258 258 258 258 259 260 259 257 256 257 256 256 256 255 255 255 255 255 255 255 255 256 256 257 257 257 257 257 258 258 259 259 260 260 261 261 262 262 262 262 262 263 263 263 262 263 262 262 262 261 261 261 260 260 260 260
255 255 255 255 255 255 256 256 256 256 256 257 257 256 254 254 254 254 254 254 253 253 254 254 254 254 254 254 255 255 255 256 256 256 256 256 256 256 257 258 258 259 260 260 261 261 261 261 262 262 262 261 261 261 261 261 260 260 259 259 259 259 259
254 254 254 254 254 254 254 254 254 254 255 256 255 254 253 252 252 252 252 252 252 252 252 253 253 253 253 253 253 253 254 254 254 254 255 255 255 255 255 256 257 257 258 259 260 260 260 261 261 261 261 261 260 260 260 260 259 259 259 259 259 258 258
253 253 253 253 253 253 253 253 253 253 254 254 253 252 251 251 251 251 251 251 251 251 251 252 252 252 252 252 252 252 252 253 253 253 254 254 254 254 254 255 255 256 256 257 258 259 260 260 260 260 260 260 260 259 259 259 259 259 259 258 258 258 258

ECMWFFLT1_925_thetae_135.txt.gz
Theta_e
282 282 283 283 283 284 284 284 284 284 284 284 283 283 283 283 282 282 282 282 282 281 281 281 281 281 281 280 280 280 280 279 279 279 279 278 278 278 278 278 279 280 280 280 280 280 280 281 281 281 280 280 279 279 277 277 277 276 276 276 276 276 276
281 281 282 282 282 283 283 283 283 283 283 283 283 283 282 282 282 282 282 282 281 281 281 281 281 281 281 280 280 280 280 279 279 279 278 278 278 278 278 278 278 278 279 280 279 279 279 279 280 280 279 279 279 279 278 276 276 276 275 276 276 276 275
280 281 281 281 282 282 282 282 283 283 283 283 283 282 282 282 282 282 281 281 281 281 281 281 281 281 280 280 280 280 280 279 279 279 279 278 278 278 277 277 277 278 278 279 279 278 278 278 278 279 279 279 279 279 278 276 276 276 275 275 275 275 275
279 279 280 281 281 281 281 281 282 282 282 283 282 282 282 282 282 281 281 281 281 281 281 281 281 281 281 280 280 280 280 279 279 279 279 278 278 278 277 277 277 277 277 278 278 278 277 277 277 278 278 279 278 276 276 275 275 275 275 274 274 274 274
277 278 278 279 279 280 280 280 280 281 281 282 282 282 282 282 282 282 281 281 281 281 281 281 281 281 281 280 280 280 279 279 279 279 279 278 278 278 277 277 277 277 277 277 277 278 277 276 276 277 277 277 276 274 273 273 273 274 274 273 273 273 273
275 275 276 276 277 277 278 279 279 280 280 280 281 281 281 282 281 281 281 281 281 281 281 281 281 281 281 280 280 280 280 279 279 279 279 278 278 278 277 277 277 276 276 277 277 277 277 276 275 275 275 275 274 274 273 272 272 273 273 273 272 272 272
273 274 274 275 275 276 276 277 278 278 279 279 280 280 280 280 281 281 281 281 281 281 281 281 281 281 281 281 280 280 280 280 279 279 279 278 278 278 277 277 277 276 276 276 276 277 277 276 275 274 274 274 273 273 273 272 271 271 271 272 272 272 272
272 273 273 273 274 274 275 275 276 277 277 278 279 279 279 280 280 280 280 280 280 280 281 281 281 281 280 280 280 280 280 280 279 279 279 278 278 278 277 277 276 276 276 276 276 276 276 276 275 274 273 273 271 271 271 272 271 271 271 271 271 271 272
271 272 272 272 273 273 274 274 275 275 276 277 278 278 279 279 279 279 280 280 280 280 280 280 280 280 280 280 280 280 280 280 279 279 279 278 278 278 277 277 276 276 276 276 276 276 276 276 274 273 272 272 271 271 271 271 271 271 271 271 271 271 271
271 271 271 271 272 272 273 273 274 274 275 277 278 278 278 279 279 279 279 279 279 280 280 280 279 279 280 280 280 280 280 279 279 279 279 279 278 278 277 277 277 276 276 276 276 276 276 276 275 274 273 272 271 272 272 271 271 271 271 271 270 270 270
270 270 270 270 271 271 272 272 273 274 275 277 277 277 278 278 278 278 278 278 279 279 279 279 279 279 279 279 279 279 279 279 279 279 279 279 278 278 278 277 277 276 276 276 276 276 276 276 276 275 274 272 272 271 272 272 271 270 271 271 269 269 270
269 269 269 269 269 270 270 271 272 273 275 276 276 277 277 277 276 276 276 276 276 277 277 277 278 278 278 278 279 279 279 279 279 279 278 278 278 278 278 278 277 277 276 276 276 276 276 275 275 276 275 273 272 271 271 271 271 271 271 271 270 271 271
268 268 268 268 268 269 269 270 271 272 274 275 276 276 275 274 274 274 274 274 274 275 275 275 276 276 277 277 277 278 278 278 278 278 278 278 278 278 278 277 277 277 277 276 276 276 276 275 275 275 275 274 272 271 270 270 271 271 270 270 270 271 271
267 267 267 267 267 268 268 269 269 271 272 273 275 275 273 272 272 272 272 272 272 273 273 273 274 274 275 275 276 276 277 277 277 277 277 278 278 278 277 277 277 277 277 277 276 276 276 276 275 275 275 274 273 272 271 271 271 271 270 270 271 271 271
266 266 266 266 266 267 268 268 269 269 271 272 273 274 272 271 271 271 271 271 271 271 271 271 272 272 273 273 274 274 275 276 276 276 276 277 277 277 277 277 277 277 277 277 276 276 276 276 275 275 275 274 274 273 272 272 272 272 271 271 270 270 270
265 265 265 265 265 266 267 267 267 268 270 271 272 272 271 270 270 270 269 269 269 270 270 270 270 271 271 271 272 273 274 275 275 276 276 276 276 276 276 276 277 277 277 276 276 276 276 276 275 275 275 274 274 273 273 272 272 271 271 270 269 269 268
264 265 265 265 265 265 266 266 266 267 269 270 271 271 271 269 269 269 268 268 269 269 269 269 269 269 270 270 271 272 273 274 275 275 275 275 275 275 275 275 276 276 276 276 276 276 276 276 276 275 275 275 274 274 273 271 270 270 270 269 268 268 268
264 264 264 265 265 265 265 266 266 266 268 269 270 270 270 269 268 268 268 268 268 268 268 268 268 268 268 269 270 271 273 274 274 275 275 275 275 274 274 275 275 275 275 275 276 276 276 276 276 276 275 275 274 274 273 272 271 271 269 268 268 269 268
264 264 264 265 265 264 264 265 265 265 267 268 269 269 269 269 268 268 268 268 268 267 267 267 267 267 267 268 269 271 272 273 273 274 274 275 275 274 274 274 274 274 274 274 274 275 275 275 276 276 275 275 275 274 273 272 272 271 269 269 269 269 268
263 264 264 264 264 264 264 264 264 264 265 266 267 268 268 268 268 268 268 267 266 266 266 266 266 266 266 267 267 269 270 271 272 273 273 274 274 274 274 274 274 274 274 274 274 274 274 274 275 275 275 275 275 274 273 272 272 271 270 269 269 269 268
264 264 264 264 264 264 263 263 263 263 264 265 266 267 267 267 267 268 267 266 265 265 265 265 265 266 266 266 267 268 269 270 271 272 272 272 273 272 272 273 273 273 273 273 273 273 273 273 273 273 274 274 274 274 273 272 271 271 270 270 270 269 268
263 264 264 263 263 263 262 262 262 262 262 263 264 266 267 267 267 267 267 265 264 264 264 264 265 265 265 266 267 269 270 270 270 270 269 270 270 269 269 270 271 272 272 273 272 272 272 272 272 272 272 273 273 273 273 272 271 271 270 270 270 270 269
263 263 263 262 262 262 262 261 261 261 261 262 263 264 265 266 267 267 266 264 263 262 262 263 264 264 265 266 267 268 268 268 268 267 267 268 267 266 267 267 268 269 270 271 272 272 271 271 271 271 271 271 272 272 272 272 271 270 270 270 270 270 270
262 262 262 261 261 261 261 261 261 261 260 261 262 263 264 265 266 265 264 263 262 261 261 262 263 263 264 264 265 265 265 265 265 265 265 265 265 265 265 265 266 266 268 269 270 271 271 271 271 271 271 271 271 271 272 272 271 270 270 270 270 270 269
262 261 261 261 260 260 260 260 260 260 260 260 261 262 263 264 264 263 262 261 260 260 260 260 261 261 261 262 262 262 263 263 263 263 263 263 264 264 264 263 264 265 266 267 268 269 270 270 270 270 270 270 270 270 270 271 270 269 269 269 269 269 268
261 261 260 260 259 259 259 260 259 259 259 260 261 262 262 262 262 262 261 259 259 259 259 259 259 259 259 260 260 260 260 260 261 261 261 262 262 262 262 262 262 262 264 265 266 267 268 269 269 269 269 269 269 269 269 269 269 268 268 268 268 267 267
261 261 260 259 259 259 259 259 258 258 259 260 261 262 261 261 261 260 258 258 257 257 257 257 257 257 257 258 258 259 259 259 259 259 259 260 260 260 260 260 260 260 261 262 263 265 266 267 268 268 268 268 268 268 268 268 267 267 267 267 267 267 266
262 261 259 258 258 258 258 258 258 258 258 260 262 261 260 260 260 258 256 256 256 255 255 256 256 256 256 256 256 257 257 257 257 257 257 257 257 258 258 258 259 259 259 260 260 261 263 264 265 267 268 268 267 267 267 267 267 267 266 266 266 266 266
262 260 259 258 258 257 258 258 257 257 259 261 262 260 259 259 259 256 254 254 254 254 254 254 254 254 254 253 254 254 254 254 254 254 255 255 255 256 256 256 257 257 257 257 258 259 260 261 263 264 266 267 267 267 267 266 266 266 266 265 264 264 265
261 260 258 257 257 257 258 257 256 257 259 260 261 259 258 258 258 255 253 253 253 253 253 253 252 252 252 252 252 252 252 252 252 253 253 253 254 254 254 254 255 255 255 255 256 257 258 259 261 262 263 265 266 266 266 266 265 265 265 264 264 264 264
259 258 258 257 256 257 257 256 255 256 258 259 259 257 256 257 256 254 252 252 252 252 252 251 250 250 250 251 251 251 251 252 251 252 252 252 252 253 253 253 253 254 254 255 255 256 257 258 259 260 261 262 264 265 265 266 265 265 265 264 263 263 264
256 256 256 256 256 256 256 255 254 256 257 258 257 255 254 254 254 253 251 251 251 251 250 250 249 249 249 250 250 250 250 251 251 251 251 251 251 252 252 252 253 253 253 254 255 255 256 256 257 258 259 260 261 262 263 264 264 264 264 264 263 263 263
254 254 254 254 254 255 254 254 254 255 255 255 255 253 252 252 252 251 250 250 250 249 249 249 249 248 248 249 249 249 249 250 250 250 250 250 251 251 251 251 252 252 253 253 253 254 254 255 256 256 257 258 259 260 261 262 263 263 263 263 263 263 263
252 252 252 252 252 252 252 252 252 253 253 253 252 251 250 250 250 250 249 249 249 248 248 248 248 248 248 248 248 248 249 249 250 250 250 250 250 250 250 251 251 251 251 252 252 252 253 253 254 254 255 256 258 259 260 261 262 263 263 263 263 263 263
252 251 251 251 251 251 251 251 251 251 252 252 251 249 249 249 249 249 248 248 248 248 248 247 247 247 247 248 248 248 248 249 249 249 250 250 250 250 250 250 250 250 250 251 251 251 252 252 252 252 253 254 255 256 258 260 261 261 262 262 263 263 263
251 251 251 250 250 250 250 250 250 250 251 251 249 249 248 248 248 248 248 248 247 247 247 247 247 247 247 247 248 248 248 248 249 249 249 250 250 250 250 250 250 250 250 250 250 251 251 251 251 252 252 252 253 254 256 257 259 260 261 261 262 262 263

ECMWFFLT1_925_thetae_138.txt.gz
Theta_e
279 280 280 281 281 282 283 283 283 284 283 283 283 283 283 284 284 284 284 284 284 284 283 283 283 283 283 283 283 283 283 282 282 282 282 282 282 282 282 283 283 283 284 284 284 285 285 283 281 282 282 282 281 281 281 281 281 280 279 279 279 279 279
278 278 279 279 280 281 281 282 282 283 283 283 283 283 283 283 283 283 283 283 283 283 283 283 283 283 283 283 282 282 282 282 282 282 282 282 282 282 282 282 282 282 283 283 283 283 283 282 281 281 281 281 281 280 280 281 281 280 279 279 279 279 279
276 277 277 278 279 279 280 280 281 281 282 282 283 283 283 283 283 283 283 283 283 283 283 283 283 283 283 282 282 282 282 282 282 282 282 281 281 281 281 281 281 282 282 282 283 283 283 282 280 280 281 280 281 280 280 280 280 280 279 278 278 279 279
275 275 276 277 277 278 278 279 279 279 280 281 281 282 282 283 283 282 282 282 282 283 283 283 282 282 283 282 282 282 282 282 281 281 281 281 281 281 281 281 281 281 281 281 282 282 283 282 281 280 280 280 279 280 279 279 279 279 278 278 278 278 278
274 274 275 276 276 276 277 277 277 278 278 279 279 280 281 281 282 282 282 282 282 282 282 282 282 282 282 282 282 282 282 281 281 281 281 281 281 281 281 281 280 280 280 281 281 281 281 282 281 280 279 279 278 278 278 278 278 278 278 278 277 277 278
273 273 274 274 275 275 275 276 276 276 277 277 278 279 279 280 280 281 281 282 282 282 282 282 282 282 282 282 282 282 282 281 281 281 281 281 281 281 280 280 280 280 280 280 280 280 280 281 281 280 279 279 278 278 278 277 277 277 277 277 277 277 277
272 272 273 273 273 274 274 274 275 275 276 276 277 278 278 279 280 280 281 281 281 281 281 281 282 281 281 281 281 281 281 281 281 281 281 281 281 280 280 280 280 279 279 279 279 279 279 280 280 279 279 278 278 277 278 277 277 277 276 276 276 276 276
271 271 271 272 272 272 272 273 273 274 274 275 276 277 278 279 279 280 280 280 280 280 280 280 281 281 281 281 281 281 281 281 281 281 281 281 281 280 280 280 280 279 279 279 278 279 279 279 279 279 279 278 277 276 277 277 277 277 277 276 275 275 275
270 270 270 270 270 271 271 271 272 273 274 275 276 277 278 278 278 279 279 279 279 279 280 280 280 280 280 280 280 280 280 280 281 281 281 281 280 280 280 280 279 279 279 279 278 278 279 279 279 279 279 278 277 276 276 277 276 276 276 276 275 274 274
269 269 269 269 269 270 270 270 271 272 274 275 276 277 277 277 277 277 278 278 278 278 278 278 279 279 279 279 279 279 280 280 280 280 280 280 280 280 280 280 279 279 279 278 278 278 279 279 279 279 279 278 277 276 276 276 275 275 275 275 274 274 274
267 268 268 268 268 269 269 270 270 271 273 274 275 276 276 276 275 275 275 275 275 275 276 276 276 277 277 277 278 278 278 279 279 279 279 280 280 280 280 279 279 279 279 278 278 278 279 279 279 279 279 279 277 276 276 275 275 275 275 274 273 273 273
266 266 267 267 267 268 268 269 269 270 272 273 274 275 275 274 273 273 273 273 273 273 273 273 274 274 274 275 275 276 276 277 277 278 278 279 279 279 279 279 279 279 279 278 278 278 278 279 278 279 279 279 277 276 275 275 274 274 274 274 274 274 273
265 265 266 266 266 267 267 268 268 269 271 272 273 274 274 272 272 272 271 271 271 271 271 271 272 272 272 273 273 273 274 274 275 276 276 277 278 278 279 279 279 279 279 279 278 278 278 278 278 278 279 278 277 276 275 274 274 274 274 274 274 274 274
265 265 265 265 265 266 266 266 267 268 270 271 272 273 273 271 271 271 270 270 270 270 270 270 271 271 271 272 271 272 272 273 273 274 275 276 276 277 277 278 278 279 279 279 279 278 278 278 278 278 278 278 277 277 276 275 274 274 273 273 274 274 274
264 264 264 264 265 265 266 266 266 267 270 271 271 272 272 270 270 270 269 269 269 269 270 270 270 270 270 270 270 270 271 272 273 274 275 275 276 276 276 276 277 278 278 278 279 278 278 278 278 278 278 278 277 277 276 275 275 275 274 273 273 274 273
264 264 264 264 265 265 265 265 266 267 269 270 270 271 270 270 270 269 269 268 269 269 269 269 268 268 268 268 268 268 270 272 273 274 274 275 275 275 276 276 276 277 277 278 278 278 278 278 278 278 277 277 277 276 276 275 275 275 274 273 273 273 273
263 263 263 264 265 265 265 265 265 266 268 269 269 269 269 269 269 269 268 268 269 269 268 268 267 267 267 267 267 268 269 271 272 272 273 273 274 275 275 275 276 276 276 276 277 277 278 278 278 278 278 278 277 277 276 275 274 273 273 273 272 272 273
263 263 263 264 264 264 264 264 264 265 266 267 268 268 268 268 268 268 268 268 268 268 267 267 267 267 267 267 267 268 269 270 271 271 272 272 273 274 274 274 275 275 275 275 275 276 276 276 277 277 278 278 278 277 276 275 274 273 273 273 273 273 273
263 263 263 263 263 263 263 263 263 264 265 266 267 268 268 268 267 267 268 268 267 267 267 266 266 266 266 266 267 268 269 270 271 271 271 271 272 272 272 272 272 272 273 274 275 275 275 275 275 275 276 277 277 277 276 275 275 274 273 272 272 273 273
263 263 263 263 263 263 263 263 263 263 264 265 266 267 267 267 267 267 268 267 266 266 266 266 265 265 265 265 266 268 269 270 270 270 269 269 270 271 270 269 269 270 270 271 273 274 274 274 274 274 275 275 276 276 276 276 275 274 274 273 272 273 273
263 263 263 263 262 262 262 262 262 262 262 263 264 266 266 266 267 267 267 266 265 265 265 264 264 264 264 264 266 267 268 268 268 268 267 267 268 268 268 267 267 268 268 269 271 273 274 274 274 274 274 275 275 275 276 276 275 274 274 273 273 272 272
263 263 262 262 262 262 261 261 261 261 261 262 263 264 266 266 266 266 265 264 264 263 263 263 263 263 263 263 264 265 266 266 266 265 265 265 266 266 265 265 266 267 268 268 269 271 272 273 274 274 274 274 274 275 275 275 275 274 273 274 273 273 273
263 262 262 262 262 262 261 261 261 260 261 261 262 263 265 266 265 263 263 262 262 262 261 261 261 261 262 262 263 263 264 264 263 263 263 263 263 263 263 264 265 266 266 267 268 269 270 271 273 273 273 274 274 274 274 275 274 274 273 273 273 273 273
262 263 262 262 262 262 261 261 260 260 260 261 262 263 264 264 263 262 261 261 260 260 259 259 259 260 261 261 261 261 261 261 261 261 261 261 261 261 262 262 263 264 265 266 267 268 269 270 271 272 272 273 273 273 273 273 274 274 274 273 273 273 273
263 263 262 262 261 261 261 260 260 260 260 260 261 262 263 262 261 260 260 259 258 258 257 257 258 258 258 258 258 258 259 258 258 258 259 259 259 260 260 260 261 262 263 264 265 266 267 268 269 270 270 271 271 272 272 272 272 273 273 273 272 272 272
262 262 262 261 261 260 260 260 260 259 259 260 261 261 261 261 260 259 258 258 257 256 256 256 256 256 256 256 256 257 257 257 257 257 257 257 258 258 258 259 259 260 261 262 262 263 264 265 266 267 268 269 270 270 270 270 271 271 271 271 271 271 271
262 262 261 261 260 260 260 259 259 259 259 260 261 260 260 260 258 257 257 256 256 255 255 255 255 255 255 255 255 255 256 255 256 256 256 256 256 256 257 257 257 258 259 259 260 260 261 262 263 264 265 267 268 269 269 269 270 270 270 270 270 270 270
261 261 260 259 259 259 259 259 258 258 258 260 260 259 259 259 257 255 255 255 254 254 254 254 254 254 254 254 254 255 255 254 254 255 254 254 255 255 256 256 256 257 257 257 257 258 259 260 261 262 263 265 266 267 268 269 269 269 269 269 269 269 269
261 260 259 258 258 258 258 258 257 257 259 260 260 258 259 258 256 254 253 253 253 253 253 253 253 253 253 253 253 253 254 253 253 254 253 253 254 254 254 255 255 255 255 256 256 257 258 259 259 260 261 262 264 265 266 268 268 268 268 268 268 268 269
260 259 258 258 258 258 257 256 256 257 259 260 259 257 258 257 255 253 252 252 252 252 252 252 253 252 252 252 252 252 253 253 252 253 253 253 253 253 253 253 254 254 254 254 255 256 257 257 258 259 260 260 261 262 263 265 266 267 268 268 267 267 268
259 258 257 257 257 257 256 255 255 257 258 259 257 256 256 256 255 253 251 251 251 252 252 251 252 251 251 251 251 251 252 252 252 252 252 252 252 252 252 252 252 252 253 253 254 255 255 255 256 257 257 258 259 260 261 262 263 265 267 267 267 267 267
256 256 256 256 256 256 256 255 255 256 257 257 256 254 253 254 253 252 251 251 251 251 251 251 251 251 250 250 250 250 250 251 251 251 251 251 252 252 252 251 251 251 252 253 253 253 254 254 255 255 255 256 257 258 259 260 261 263 264 266 266 267 266
254 254 254 255 255 255 254 254 254 254 255 255 254 253 252 252 251 250 250 250 250 250 250 250 250 250 249 249 249 249 249 250 250 250 250 251 251 251 251 251 251 251 252 252 252 252 253 253 253 253 254 254 255 256 257 258 259 261 262 263 265 265 266
253 253 253 252 252 252 252 252 252 253 253 252 252 251 251 251 250 250 249 249 249 249 249 249 249 249 249 248 248 248 249 249 249 249 249 250 250 250 251 250 251 251 251 251 251 252 252 252 252 252 253 253 254 254 255 256 257 258 260 261 263 264 265
251 251 251 251 251 251 251 251 251 251 252 251 250 250 250 250 250 249 249 249 249 249 249 248 248 248 248 248 248 248 248 248 248 248 248 249 249 249 250 250 250 251 251 250 251 251 251 251 251 252 252 252 253 253 254 255 256 256 257 259 260 262 263
251 251 251 250 250 250 250 250 250 250 251 251 250 249 249 249 249 249 249 249 249 248 248 248 248 248 247 247 247 247 247 247 247 247 248 248 248 248 249 249 250 250 250 250 250 250 250 250 251 251 251 252 252 252 253 254 254 255 256 256 258 259 261